Weather History for Pompano Beach, FL

Change the Weather History Date:

Monday, December 17, 2012

  Actual Average Record
Temperature  
Mean Temperature 73 °F -  
Max Temperature 82 °F 77 °F 87 °F (1965)
Min Temperature 64 °F 56 °F 40 °F (1953)
Cooling Degree Days 8    
Growing Degree Days 23 (Base 50)    
Moisture  
Dew Point 66 °F    
Average Humidity 80    
Maximum Humidity 100    
Minimum Humidity 47    
Precipitation  
Precipitation 0.00 in - - ()
Sea Level Pressure  
Sea Level Pressure 29.97 in    
Wind  
Wind Speed 4 mph (SW)    
Max Wind Speed 10 mph    
Max Gust Speed 16 mph    
Visibility 10 miles    
Events      
Averages and records for this station are not official NWS values.
T = Trace of Precipitation, MM = Missing Value Source: NWS Daily Summary

Daily Weather History Graph

Daily Weather History Graph

Search for Another Location

Airport:

Trip Planner

Search our weather history database for the weather conditions in past years. The results will help you decide how hot, cold, wet, or windy it might be!

Date:

Astronomy

Dec. 17, 2012 Rise Set
Actual Time 7:01 AM EST 5:31 PM EST
Civil Twilight 6:36 AM EST 5:57 PM EST
Nautical Twilight 6:07 AM EST 6:26 PM EST
Astronomical Twilight 5:39 AM EST 6:54 PM EST
Moon 10:32 AM EST (12/17) 10:25 PM EST (12/17)
Length of Visible Light 11h 20m
Length of Day
10h 30m
Waxing Crescent, 24% of the Moon is Illuminated
Dec 17
Waxing Crescent
Dec 20
First Quarter
Dec 28
Full
Jan 4
Last Quarter
Jan 11
New

Hourly Weather History & Observations

Time (EST) Temp. Heat Index Dew Point Humidity Pressure Visibility Wind Dir Wind Speed Gust Speed Precip Events Conditions
12:02 AM 73.4 °F - 69.8 °F 88% 29.99 in 10.0 mi South 3.5 mph - N/A   Scattered Clouds
12:53 AM 70.0 °F - 69.1 °F 97% 29.99 in 10.0 mi West 3.5 mph - N/A   Partly Cloudy
1:53 AM 69.1 °F - 68.0 °F 96% 29.98 in 10.0 mi Calm Calm - N/A   Clear
2:53 AM 69.1 °F - 68.0 °F 96% 29.98 in 10.0 mi West 4.6 mph - N/A   Clear
4:53 AM 66.0 °F - 64.9 °F 96% 29.97 in 10.0 mi Calm Calm - N/A   Clear
5:53 AM 64.9 °F - 64.9 °F 100% 29.97 in 10.0 mi Calm Calm - N/A   Clear
6:53 AM 64.9 °F - 64.9 °F 100% 29.98 in 10.0 mi Calm Calm - N/A   Clear
7:53 AM 66.9 °F - 66.0 °F 97% 29.98 in 10.0 mi Calm Calm - N/A   Clear
8:53 AM 72.0 °F - 66.0 °F 81% 29.99 in 10.0 mi South 3.5 mph - N/A   Clear
9:53 AM 75.0 °F - 66.0 °F 73% 29.99 in 10.0 mi South 6.9 mph - N/A   Clear
10:53 AM 79.0 °F - 64.9 °F 62% 29.99 in 10.0 mi South 4.6 mph - N/A   Scattered Clouds
11:53 AM 80.1 °F 81.5 °F 63.0 °F 56% 29.96 in 10.0 mi SSW 10.4 mph 16.1 mph N/A   Mostly Cloudy
12:53 PM 82.0 °F 83.0 °F 62.1 °F 51% 29.93 in 10.0 mi SSW 9.2 mph - N/A   Mostly Cloudy
1:53 PM 82.9 °F 83.3 °F 61.0 °F 47% 29.91 in 10.0 mi SW 10.4 mph - N/A   Partly Cloudy
2:53 PM 79.0 °F - 66.9 °F 66% 29.90 in 10.0 mi SSE 8.1 mph - N/A   Overcast
3:53 PM 78.1 °F - 68.0 °F 71% 29.91 in 10.0 mi South 9.2 mph - N/A   Mostly Cloudy
4:53 PM 80.1 °F 82.1 °F 66.0 °F 62% 29.93 in 10.0 mi WSW 8.1 mph - N/A   Partly Cloudy
7:53 PM 75.0 °F - 66.0 °F 73% 29.97 in 10.0 mi West 8.1 mph - N/A   Clear
8:53 PM 73.0 °F - 68.0 °F 84% 29.98 in 10.0 mi West 6.9 mph - N/A   Clear
9:53 PM 72.0 °F - 68.0 °F 87% 29.98 in 10.0 mi WSW 3.5 mph - N/A   Clear
10:53 PM 70.0 °F - 68.0 °F 93% 29.99 in 10.0 mi Calm Calm - N/A   Clear
11:53 PM 69.1 °F - 66.9 °F 93% 29.97 in 10.0 mi Calm Calm - N/A   Scattered Clouds